Simultaneous Nadir Overpasses (SNOs) Predictions

Prediction of SNOs between GOES-16 and AQUA Satellite Orbit:

Table of predicted SNOs for the next 14.0 days since TLE Epoch: 3/16/2024
Index Date Time (GOES-16) GOES-16 Lat,Lon AQUA Lat,Lon Distance(km) Time Diff (sec)
1 03/16/2024 18:58:37 0.05, -75.20 0.45, -73.35 210.56 80
2 03/17/2024 07:18:56 -0.04, -75.21 0.62, -78.27 347.89 80
3 03/19/2024 07:00:28 -0.04, -75.22 -0.20, -74.41 92.44 80
4 03/19/2024 19:23:35 0.03, -75.22 -0.87, -79.36 471.26 80
5 03/21/2024 19:07:46 0.02, -75.24 -0.06, -75.49 29.60 80
6 03/23/2024 18:49:18 0.02, -75.26 0.79, -71.63 413.48 80
7 03/24/2024 07:12:16 -0.02, -75.28 0.25, -76.54 143.92 80
8 03/26/2024 06:53:46 -0.02, -75.31 -0.58, -72.68 299.91 80
9 03/26/2024 19:16:53 0.02, -75.31 -0.50, -77.62 263.04 80
10 03/28/2024 18:58:22 0.02, -75.35 0.33, -73.75 181.69 80
11 03/29/2024 07:21:21 -0.02, -75.37 0.69, -78.67 375.23 80
